Skip Page Navigation
NASA JPL Caltech
NASA Logo - Jet Propulsion Laboratory + View the NASA Portal
+ Center for Near-Earth Object Studies
JPL Home Earth Solar System Stars & Galaxies Technology
JPL Solar System Dynamics
BODIES ORBITS EPHEMERIDES TOOLS PHYSICAL DATA DISCOVERY FAQ SITE MAP
JPL Small-Body Database Browser
Search: [ help ]  
413100 (2001 UE106)
Classification: Main-belt Asteroid          SPK-ID: 2413100
Ephemeris | Orbit Diagram | Orbital Elements | Mission Design | Physical Parameters | Discovery Circumstances ]

[ show orbit diagram ]
Orbital Elements at Epoch 2459000.5 (2020-May-31.0) TDB
Reference: JPL 15 (heliocentric ecliptic J2000)
 Element Value Uncertainty (1-sigma)   Units 
e .2373923408911455 5.0167e-08  
a 2.669957430109986 2.488e-08 au
q 2.036129985696469 1.236e-07 au
i 13.65918095264256 7.8379e-06 deg
node 39.49566971984314 2.5944e-05 deg
peri 55.17832275565586 3.8055e-05 deg
M 57.55883968813378 2.134e-05 deg
tp 2458745.720511041849
(2019-Sep-19.22051104)
9.5106e-05 TDB
period 1593.510510668672
4.36
2.2274e-05
6.098e-08
d
yr
n .2259163008902502 3.1578e-09 deg/d
Q 3.303784874523503 3.0787e-08 au
  Orbit Determination Parameters
   # obs. used (total)      168  
   data-arc span      6756 days (18.50 yr)  
   first obs. used      2001-10-20  
   last obs. used      2020-04-19  
   planetary ephem.      DE431  
   SB-pert. ephem.      SB431-N16  
   condition code      0  
   norm. resid. RMS      .57595  
   source      ORB  
   producer      Otto Matic  
   solution date      2020-May-22 02:06:51  

Additional Information
 Earth MOID = 1.08457 au 
 Jupiter MOID = 2.09186 au 
 T_jup = 3.301 
[ show covariance matrix ]

Ephemeris | Orbit Diagram | Orbital Elements | Mission Design | Physical Parameters | Discovery Circumstances ]

Physical Parameter Table
Parameter Symbol Value Units Sigma Reference Notes
absolute magnitude H 17.2   n/a MPO455940  

413100 (2001 UE106)          Discovered 2001-Oct-20 by LINEAR at Socorro
Reference: Last Updated: 2014-11-10

Alternate Designations
 2001 UE106 = 2010 XZ23 
Ephemeris | Orbit Diagram | Orbital Elements | Mission Design | Physical Parameters | Discovery Circumstances ]
ABOUT SSD CREDITS/AWARDS PRIVACY/COPYRIGHT GLOSSARY LINKS
FirstGov 2020-Aug-07 22:14 UT
(server date/time)  
NASA Home Page
Site Manager:   Ryan S. Park
Webmaster  Alan B. Chamberlin